Location: Driftpile
(55.3500°N, 115.7667°W)
Time: 01:54:18
(UTC+00:00)

ISS - Pass Details

Date: 03 December 2021
Orbit: 413 x 422 km, 51.6° (Epoch: 24 January)

Event Time Altitude Azimuth Distance (km) Brightness Sun altitude
Rises 00:31:20 0° 265° (W) 2,386 1.6 -9.8°
Reaches altitude 10° 00:33:30 10° 258° (WSW) 1,519 0.5 -10.1°
Maximum altitude 00:36:45 43° 186° (S) 611 -2.7 -10.5°
Drops below altitude 10° 00:39:59 10° 114° (ESE) 1,511 -1.3 -10.9°
Enters shadow 00:40:16 - 113° (ESE) 1,620 -1.2 -10.9°
